Stations météo

Publicité
Ouessant, France (7100): Température de l'air & dewpoint: 15.10.2017 10:00:00 - 21.10.2017 10:00:00 (CEST)Ouessant, France (7100): Vitesse du vent & gusts: 15.10.2017 10:00:00 - 21.10.2017 10:00:00 (CEST)Ouessant, France (7100): Direction du vent: 15.10.2017 10:00:00 - 21.10.2017 10:00:00 (CEST)Ouessant, France (7100): reduced air pressure: 15.10.2017 10:00:00 - 21.10.2017 10:00:00 (CEST)Ouessant, France (7100): visibility: 15.10.2017 10:00:00 - 21.10.2017 10:00:00 (CEST)Ouessant, France (7100): Quantités de précipitations: 15.10.2017 10:00:00 - 21.10.2017 10:00:00 (CEST)
Date & Time tt [°C] td [°C] ff [km/h] ff [knt] fx [km/h] fx [knt] dd ppp [hPa] vv [km] rr [mm]
21.10.2017 10:00:00 12,9 9,0 49 26 86 47 WSW 1009,0 - 0,0
21.10.2017 09:00:00 11,5 8,5 54 29 90 48 WSW 1008,0 - 0,2
21.10.2017 08:00:00 13,2 9,4 54 29 85 46 WSW 1007,3 13 0,0
21.10.2017 07:00:00 13,2 9,1 56 30 94 51 WSW 1006,8 - 0,0
21.10.2017 06:00:00 13,0 9,4 58 32 99 54 SW 1006,2 - 0,2
21.10.2017 05:00:00 13,6 10,4 52 28 80 43 SW 1005,9 10 0,0
21.10.2017 04:00:00 13,5 9,9 58 31 89 48 WSW 1005,7 - 0,0
21.10.2017 03:00:00 13,8 10,8 44 24 73 40 WSW 1005,4 - 0,0
21.10.2017 02:00:00 13,3 11,9 40 21 56 30 SW 1004,9 6 0,0
21.10.2017 01:00:00 12,5 11,2 38 21 64 35 SSW 1004,9 - 1,2
21.10.2017 00:00:00 13,6 11,8 46 25 61 33 SSW 1004,1 - 0,0
20.10.2017 23:00:00 13,1 11,3 39 21 55 30 SSW 1004,6 10 0,6
20.10.2017 22:00:00 13,8 12,2 35 19 80 43 SW 1004,7 - 0,2
20.10.2017 21:00:00 15,2 14,9 59 32 91 49 SSW 1004,3 - 1,2
20.10.2017 20:00:00 15,1 14,6 54 29 84 46 S 1003,4 6 1,0
20.10.2017 19:00:00 15,1 14,0 53 29 82 44 S 1004,4 - 0,0
20.10.2017 18:00:00 15,2 13,6 48 26 77 42 S 1005,6 - 0,0
20.10.2017 17:00:00 15,1 13,1 42 23 72 39 S 1006,9 10 0,0
20.10.2017 16:00:00 15,6 12,7 47 26 68 37 S 1007,7 - 0,0
20.10.2017 15:00:00 15,6 12,3 44 24 63 34 S 1008,8 - 0,0
20.10.2017 14:00:00 15,7 12,1 38 21 54 29 S 1010,0 25 0,0
20.10.2017 13:00:00 15,9 11,7 29 16 41 22 S 1010,8 - 0,0
20.10.2017 12:00:00 15,9 11,1 26 14 33 18 SSW 1011,4 - 0,0
20.10.2017 11:00:00 15,2 11,0 22 12 30 16 SSW 1011,5 18 0,0
20.10.2017 10:00:00 12,8 8,5 19 10 32 17 SW 1011,3 - 0,0
20.10.2017 09:00:00 11,5 7,8 23 12 36 20 WSW 1011,2 - 0,0
20.10.2017 08:00:00 11,6 8,3 23 12 32 18 W 1010,6 - 0,0
20.10.2017 07:00:00 11,7 8,5 24 13 45 24 W 1010,1 - 0,0
20.10.2017 06:00:00 12,0 8,5 31 17 49 26 W 1009,4 - 0,0
20.10.2017 05:00:00 12,5 9,0 38 21 54 29 W 1009,1 15 0,0
20.10.2017 04:00:00 12,3 8,4 39 21 55 30 W 1008,5 - 0,0
20.10.2017 03:00:00 12,2 9,0 39 21 62 34 W 1008,0 - 0,0
20.10.2017 02:00:00 12,4 9,4 39 21 64 35 W 1007,1 20 0,0
20.10.2017 01:00:00 12,3 8,9 48 26 68 37 W 1006,5 - 0,0
20.10.2017 00:00:00 12,4 8,9 44 24 68 37 W 1005,6 - 0,0
19.10.2017 23:00:00 12,6 9,8 49 27 71 38 W 1004,7 - 0,0
19.10.2017 22:00:00 12,6 9,6 48 26 71 38 W 1003,6 - 0,0
19.10.2017 21:00:00 12,9 9,9 51 27 68 37 W 1002,5 - 0,0
19.10.2017 20:00:00 12,8 11,0 42 23 64 35 W 1001,6 - 0,0
19.10.2017 19:00:00 13,4 11,6 41 22 61 33 W 1000,2 - 0,0
19.10.2017 18:00:00 13,7 11,9 47 25 69 37 W 999,0 - 0,0
19.10.2017 17:00:00 14,4 14,1 36 20 75 40 W 998,3 60 3,2
19.10.2017 16:00:00 14,5 14,2 53 29 - - S 997,8 - 2,9
19.10.2017 15:00:00 14,4 14,1 56 31 86 47 S 998,3 - 4,4
19.10.2017 14:00:00 14,7 13,6 47 25 80 43 S 999,6 15 0,0
19.10.2017 13:00:00 14,8 13,8 48 26 73 39 S 1001,0 - 0,4
19.10.2017 12:00:00 14,7 13,9 40 22 63 34 S 1002,2 - 0,0
19.10.2017 11:00:00 14,4 13,8 27 15 49 26 SSE 1002,8 18 0,0
19.10.2017 10:00:00 14,1 13,6 27 15 42 23 S 1003,6 - 0,0
19.10.2017 09:00:00 13,9 13,6 27 15 39 21 S 1003,5 - 0,0
19.10.2017 08:00:00 13,7 13,2 24 13 33 18 S 1004,0 20 0,0
19.10.2017 07:00:00 13,4 12,6 19 10 30 16 S 1004,5 - 0,0
19.10.2017 06:00:00 13,1 12,3 14 8 22 12 S 1004,8 - 0,0
19.10.2017 05:00:00 12,3 11,2 17 9 21 12 SW 1005,9 - 0,0
19.10.2017 04:00:00 12,5 11,2 18 10 24 13 SW 1006,8 - 0,0
19.10.2017 03:00:00 13,2 12,1 21 12 25 14 SW 1007,5 - 0,0
19.10.2017 02:00:00 13,2 11,8 13 7 23 13 S 1007,8 20 0,0
19.10.2017 01:00:00 13,2 12,4 18 10 27 15 SE 1008,0 - 0,0
19.10.2017 00:00:00 13,2 12,6 7 4 17 9 SE 1009,1 - 0,0
18.10.2017 23:00:00 12,8 12,3 13 7 15 8 S 1009,0 18 0,0
18.10.2017 22:00:00 13,3 12,8 10 5 16 9 S 1009,0 - 0,0
18.10.2017 21:00:00 13,6 13,1 12 7 17 9 S 1009,5 - 0,0
18.10.2017 20:00:00 13,8 13,2 16 8 23 12 S 1009,6 15 0,0
18.10.2017 19:00:00 14,4 13,4 13 7 20 11 S 1009,2 - 0,0
18.10.2017 18:00:00 15,3 14,2 11 6 22 12 S 1009,0 - 0,0
18.10.2017 17:00:00 15,3 14,0 17 9 31 17 S 1009,1 20 0,0
18.10.2017 16:00:00 15,7 14,2 18 10 36 19 S 1009,2 - 0,0
18.10.2017 15:00:00 16,2 14,6 20 11 36 19 SSE 1009,3 - 0,0
18.10.2017 14:00:00 17,0 14,5 21 11 43 23 S 1009,8 20 0,0
18.10.2017 13:00:00 15,5 14,4 23 12 42 23 S 1010,1 - 0,0
18.10.2017 12:00:00 15,5 14,5 19 10 37 20 S 1009,9 - 0,0
18.10.2017 11:00:00 15,4 14,4 18 10 35 19 SSE 1009,9 14 0,0
18.10.2017 10:00:00 14,3 13,8 16 9 28 15 SSE 1009,8 - 0,0
18.10.2017 09:00:00 13,6 13,0 21 12 30 16 S 1009,5 - 0,0
18.10.2017 08:00:00 13,4 12,8 21 11 30 16 S 1009,3 20 0,0
18.10.2017 07:00:00 13,3 12,8 20 11 26 14 S 1009,8 - 0,0
18.10.2017 06:00:00 13,1 12,6 16 9 21 12 S 1009,9 - 0,0
18.10.2017 05:00:00 12,7 12,2 15 8 22 12 SSW 1010,2 20 0,0
18.10.2017 04:00:00 12,6 12,1 18 10 22 12 SSW 1010,7 - 0,0
18.10.2017 03:00:00 12,7 12,1 16 9 22 12 SSW 1010,9 - 0,0
18.10.2017 02:00:00 13,4 12,8 18 10 24 13 SSW 1011,1 15 0,0
18.10.2017 01:00:00 13,3 12,4 13 7 22 12 SE 1011,4 - 0,0
18.10.2017 00:00:00 12,9 12,0 21 11 29 16 E 1011,8 - 0,0
17.10.2017 23:00:00 12,8 11,7 25 14 36 19 E 1012,2 - 0,0
17.10.2017 22:00:00 12,8 11,9 32 18 41 22 E 1012,2 - 0,0
17.10.2017 21:00:00 12,6 11,7 29 16 44 24 E 1012,7 - 0,0
17.10.2017 20:00:00 12,4 11,6 38 21 59 32 E 1013,1 7 0,0
17.10.2017 19:00:00 12,4 11,6 44 24 60 32 E 1013,1 - 0,0
17.10.2017 18:00:00 12,0 10,7 32 17 47 25 ENE 1014,2 - 0,0
17.10.2017 17:00:00 11,8 10,7 34 18 44 24 ENE 1014,6 8 0,2
17.10.2017 16:00:00 11,6 10,7 23 12 32 18 ENE 1015,8 - 1,6
17.10.2017 15:00:00 11,5 10,6 20 11 34 18 ENE 1016,9 - 2,5
17.10.2017 14:00:00 11,6 10,7 22 12 33 18 E 1018,0 10 1,4
17.10.2017 13:00:00 12,2 10,6 21 11 27 15 ESE 1018,8 - 0,8
17.10.2017 12:00:00 12,4 10,6 16 9 21 12 E 1019,3 - 2,2
17.10.2017 11:00:00 13,3 10,7 19 10 28 15 ESE 1019,4 15 0,0
17.10.2017 10:00:00 13,2 11,3 18 10 23 12 ESE 1019,3 - 0,0
17.10.2017 09:00:00 13,1 11,8 15 8 19 10 ESE 1019,3 - 0,0
17.10.2017 08:00:00 13,4 11,8 9 5 15 8 ESE 1019,4 15 0,0
17.10.2017 07:00:00 13,2 10,2 6 3 11 6 SSE 1019,7 - 0,0
17.10.2017 06:00:00 12,7 10,4 6 4 11 6 SSE 1020,0 - 0,0
17.10.2017 05:00:00 11,8 8,6 8 5 16 9 SW 1020,4 15 0,0
17.10.2017 04:00:00 12,5 9,3 13 7 22 12 WSW 1020,9 - 0,0
17.10.2017 03:00:00 12,7 8,4 18 10 30 16 WSW 1021,4 - 0,0
17.10.2017 02:00:00 12,2 8,3 25 14 31 17 WSW 1021,5 15 0,0
17.10.2017 01:00:00 12,6 8,1 25 14 32 17 WSW 1021,7 - 0,0
17.10.2017 00:00:00 13,0 9,6 22 12 29 16 WSW 1021,9 - 0,0
16.10.2017 23:00:00 12,9 9,3 23 12 33 18 WSW 1021,6 17 0,0
16.10.2017 22:00:00 13,0 9,8 21 12 34 18 SW 1020,9 - 0,0
16.10.2017 21:00:00 13,5 10,3 22 12 44 24 SW 1020,5 - 0,0
16.10.2017 20:00:00 14,2 9,4 34 18 49 26 WSW 1019,7 12 0,0
16.10.2017 19:00:00 14,7 10,7 30 16 54 29 WSW 1018,8 - 0,0
16.10.2017 18:00:00 15,8 11,0 37 20 58 31 SW 1018,5 - 0,0
16.10.2017 17:00:00 16,8 11,5 37 20 60 32 SW 1018,0 12 0,0
16.10.2017 16:00:00 16,9 11,2 41 22 64 35 SW 1017,3 - 0,0
16.10.2017 15:00:00 17,3 11,3 45 25 73 40 SW 1016,6 - 0,0
16.10.2017 14:00:00 17,4 12,1 46 25 76 41 SW 1016,0 12 0,0
16.10.2017 13:00:00 17,6 12,1 50 27 76 41 SW 1014,9 - 0,0
16.10.2017 12:00:00 17,1 11,8 49 26 81 44 SW 1014,0 - 0,0
16.10.2017 11:00:00 16,9 13,0 46 25 74 40 SW 1012,8 12 0,0
16.10.2017 10:00:00 15,9 12,5 48 26 81 44 SW 1011,9 - 0,0
16.10.2017 09:00:00 17,0 15,0 53 29 75 40 SSW 1010,5 - 0,0
16.10.2017 08:00:00 17,0 15,0 40 22 75 41 S 1010,0 10 0,0
16.10.2017 07:00:00 17,1 14,6 42 23 76 41 S 1009,3 - 0,0
16.10.2017 06:00:00 17,8 14,7 48 26 93 50 SSE 1009,0 - 0,0
16.10.2017 05:00:00 17,3 14,9 64 35 91 49 SE 1008,3 - 0,0
16.10.2017 04:00:00 17,1 14,7 59 32 83 45 SE 1009,2 - 0,0
16.10.2017 03:00:00 16,5 14,3 41 22 77 41 SE 1011,0 - 0,2
16.10.2017 02:00:00 17,7 14,6 50 27 80 43 SE 1011,8 15 0,0
16.10.2017 01:00:00 17,4 14,9 50 27 70 38 SE 1012,8 - 0,0
16.10.2017 00:00:00 17,2 14,7 41 22 64 34 SE 1013,2 - 0,0
15.10.2017 23:00:00 16,9 14,7 34 18 59 32 SE 1013,9 - 0,0
15.10.2017 22:00:00 16,3 14,1 25 14 54 29 SSE 1014,3 - 0,0
15.10.2017 21:00:00 16,5 14,1 23 12 44 24 SSE 1014,5 - 0,0
15.10.2017 20:00:00 16,2 14,6 29 16 48 26 S 1014,8 3,0 0,0
15.10.2017 19:00:00 16,2 14,9 35 19 53 29 S 1014,6 - 0,0
15.10.2017 18:00:00 16,0 14,9 29 16 48 26 S 1014,5 - 0,0
15.10.2017 17:00:00 16,5 15,5 24 13 50 27 SSE 1014,4 - 0,0
15.10.2017 16:00:00 15,6 15,3 28 15 53 29 SSE 1015,0 - 0,0
15.10.2017 15:00:00 15,5 15,2 31 17 57 31 SSE 1015,2 - 0,0
15.10.2017 14:00:00 15,7 14,9 32 18 68 37 SSE 1015,7 1,5 0,0
15.10.2017 13:00:00 15,7 14,7 39 21 73 39 SSE 1015,9 - 0,0
15.10.2017 12:00:00 16,1 14,6 33 18 55 30 SSE 1016,2 - 0,0
15.10.2017 11:00:00 15,5 14,5 29 15 51 28 SSE 1016,8 12 0,0
15.10.2017 10:00:00 15,0 14,4 26 14 52 28 SSE 1016,9 - 0,0

tt = Température de l'air
td = dewpoint
ff = Vitesse du vent
fx = gusts
dd = Direction du vent
ppp = reduced air pressure
vv = visibility
rr = Quantités de précipitations

stations d'obs. à proximité